Location: Newark
(53.3503°N, 9.6158°W)
Time: 11:56:37
(UTC+00:00)

Envisat - Pass Details

Date: 30 October 2019
Orbit: 764 x 766 km, 98.1° (Epoch: 12 November)

Event Time Altitude Azimuth Distance (km) Brightness Sun altitude
Rises 06:39:31 0° 22° (NNE) 3,245 6.4 -8.4°
Reaches altitude 10° 06:42:13 10° 35° (NE) 2,314 5.8 -8.0°
Maximum altitude 06:46:26 26° 91° (E) 1,485 5.6 -7.4°
Drops below altitude 10° 06:50:39 10° 148° (SSE) 2,299 6.2 -6.8°
Sets 06:53:18 0° 161° (SSE) 3,220 6.7 -6.4°
